Regional Weather Roundup
Issued by NWS

Home | Current Version | Previous Version | Graphics & Text | Print | Product List | Glossary On
Versions: 1 2 3 4 5 6 7 8 9 10 11 12 13 14 15 16 17 18 19 20 21 22 23 24 25 26 27 28 29 30 31 32 33 34 35 36 37 38 39 40 41 42 43 44 45 46 47 48 49 50
953
ASUS45 KBOU 242007
RWRCO

WEATHER ROUNDUP FOR COLORADO
NATIONAL WEATHER SERVICE DENVER/BOULDER CO
200 PM MDT MON JUL 24 2017

NOTE: "FAIR" INDICATES FEW OR NO CLOUDS BELOW 12000 FEET WITH NO
SIGNIFICANT WEATHER AND/OR OBSTRUCTIONS TO VISIBILITY.

COZ001>005-013-030-031-242100-
...NORTHWEST COLORADO...

CITY           SKY/WX    TMP DP  RH WIND       PRES   REMARKS
CRAIG          FAIR      90  34  13 CALM      30.15F
HAYDEN         FAIR      86  37  17 N3        30.18F
MEEKER         FAIR      87  43  21 SW10      30.17F
RABBIT EARS PA FAIR      68  37  32 W6        30.53S
STEAMBOAT SPGS FAIR      86  40  20 S5        30.20F
WALDEN         FAIR      77  34  20 CALM      30.32S
$$

COZ006>008-011-242100-
...WEST CENTRAL VALLEYS...

CITY           SKY/WX    TMP DP  RH WIND       PRES   REMARKS
GRAND JUNCTION FAIR      91  49  23 MISG      30.04F
MONTROSE       FAIR      87  47  24 VRB7      30.13F
EAGLE          SUNNY     84  45  24 CALM      30.19F
RIFLE          FAIR      91  44  19 NW12      30.09F
DELTA          FAIR      91  45  20 S6        30.08F
NUCLA          FAIR      86  45  23 SW7       30.18F
$$

COZ017>023-064>068-242100-
...SOUTHWEST COLORADO...

CITY           SKY/WX    TMP DP  RH WIND       PRES   REMARKS
DURANGO        FAIR      81  49  32 N5        30.22F
CORTEZ         FAIR      86  54  33 VRB7      30.15F
PAGOSA SPRINGS PTSUNNY   78  47  33 NW7       30.30F THUNDER
TELLURIDE      PTSUNNY   72  45  37 SW3       30.42F
WOLF CREEK PAS PTSUNNY   55  45  67 CALM      30.69S THUNDER
$$

COZ009-010-012-014-032>034-037-058>063-242100-
...CENTRAL COLORADO...

CITY           SKY/WX    TMP DP  RH WIND       PRES   REMARKS
ASPEN          FAIR      83  36  18 VRB5      30.26F
BUENA VISTA    PTSUNNY   81  37  20 E3        30.28S
COPPER MTN     PTSUNNY   70  32  24 CALM      30.65F
BERTHOUD PASS  CLOUDY    55  41  58 NW12      30.69F
COTTONWOOD PAS PTSUNNY   77  30  18 CALM      30.45F
GUNNISON       FAIR      79  42  26 VRB3      30.27F
KREMMLING      FAIR      95  32  11 NW13      30.26S
LEADVILLE      PTSUNNY   72  29  20 NW10G16   30.43F
SALIDA         FAIR      85  33  15 SW9       30.31F
SUNLIGHT       FAIR      66  41  39 CALM      30.57F
WILKERSON PASS PTSUNNY   64  32  29 E3        30.61S
$$

COZ069>075-242100-
...SAN LUIS VALLEY/SANGRE DE CRISTO MOUNTAINS...

CITY           SKY/WX    TMP DP  RH WIND       PRES   REMARKS
ALAMOSA        FAIR      78  49  35 VRB7      30.28F
DEL NORTE      FAIR      74  50  42 SW18      30.33R
LA VETA PASS   NOT AVBL
SAGUACHE         N/A    N/A N/A N/A MISG        N/A
$$

COZ035-036-038>040-242100-
...NORTHERN COLORADO FRONT RANGE...

CITY           SKY/WX    TMP DP  RH WIND       PRES   REMARKS
DENVER INTL AP FAIR      95  37  13 VRB3      30.05F
DMNS CITY PARK   N/A     95  33  11 N5G17     30.04S
AURORA         MOSUNNY   93  35  12 N5        30.07F
FRONT RANGE AP FAIR      95  34  11 NE8       30.07F
ERIE MUNI ARPT FAIR      95  33  11 NE7       30.02F
BOULDER MUN AP FAIR      95  37  13 E5        30.04F
CENTENNIAL     FAIR      93  34  12 N8        30.09F
BROOMFIELD     FAIR      91  37  15 E6        30.08F
FORT COLLINS   FAIR      97  43  15 E8        30.02F
LONGMONT       FAIR      96  42  15 CALM      30.04S
$$

COZ041-046-047-076>085-087-088-242100-
...PIKES PEAK/PALMER DIVIDE AND SOUTHERN FOOTHILLS...

CITY           SKY/WX    TMP DP  RH WIND       PRES   REMARKS
COLO. SPRINGS  FAIR      87  51  28 S7        30.15F
A. F. ACADEMY  FAIR      85  51  30 S5        30.16F
SCHRIEVER AFB  FAIR      84  48  29 SE12G17   30.16F
CHEYENNE MTN   PTSUNNY   77  50  38 S8        30.17F
ELLICOTT       FAIR     N/A N/A N/A S9        30.15F
FALCON           N/A     84  48  28 S13G20    30.22F
FORT CARSON    FAIR      84  52  33 SE7       30.12F
LIMON          FAIR      88  50  27 S13G18    30.10F
MONUMENT HILL  PTSUNNY   82  50  32 SE13      30.22S
CANON CITY     SUNNY     93  52  24 E8        30.07S
WALSENBURG     FAIR      93  41  16 E7G20     30.12F
TRINIDAD       FAIR      91  34  13 N6        30.13F
$$

COZ042>045-048>051-090-091-242100-
...NORTHEAST COLORADO...

CITY           SKY/WX    TMP DP  RH WIND       PRES   REMARKS
GREELEY ARPT   FAIR      94  49  21 VRB5      30.00F
AKRON          FAIR      94  50  22 S14G21    30.01F
BURLINGTON     FAIR      92  57  30 S16G33    30.04F
WRAY           NOT AVBL
YUMA           NOT AVBL
STERLING       FAIR      99  54  22 S9G16     29.93F
HOLYOKE        FAIR      99  55  23 S16G24    29.97S
FORT MORGAN    FAIR      99  42  14 SE12      29.98F
$$

COZ086-089-092>099-242100-
...SOUTHEAST COLORADO...

CITY           SKY/WX    TMP DP  RH WIND       PRES   REMARKS
PUEBLO         FAIR      95  48  20 VRB6      30.02F
LA JUNTA       FAIR      96  49  20 SE10      30.01F
LAMAR          FAIR      94  58  29 SE14G22   29.98F
SPRINGFIELD      N/A     89  59  36 S16G23    30.06F
$$




USA.gov is the U.S. government's official web portal to all federal, state and local government web resources and services.